STARLINK-35408

Last updated on Mon Oct 20 2025 00:02:07 GMT+0000 (Coordinated Universal Time)

1 65859U 25223F 25292.25002315 -.01914232 00000+0 -21881-1 0 9999 2 65859 53.1600 234.9911 0001148 85.7049 17.3006 15.64697207 3733
UTC large
Height (km)
Speed (km/s)
/
Latitude / Longitude
Inclination (degrees)
Orbital Period (minutes)
Azimuth
Elevation
Range (km)
Doppler Factor

Next 0 passes for location: London (51.5072 / 0.1276)

Sorry there are no passes over London.